[[{"header":{"parameterUnit":"m.s-1","parameterCategory":1,"la1":30.2991,"la2":30.254,"lo1":-89.0895,"lo2":-89.0444,"dy":0.0017,"dx":0.0017,"nx":28,"ny":28,"refTime":"2024-06-25T21:00:00:Z","depth":0,"parameterNumber":2,"parameterNumberName":"U-component_of_WINDS"},"data":[0,0,0,0,0,0,0,0,0,0,0,0,0,0,0,0,0,0,0,0,0,0,0,0,0,0,0,0,0,0,0,0,0,0,0,0,0,0,0,0,0,0,0,0,0,0,0,0,0,0,0,0,0,0,0,0,0,0,3.6416,3.6417,0,3.6529,3.6531,3.6532,3.6458,3.6454,3.6451,3.6448,3.6568,3.6574,3.658,0,0,0,0,0,0,0,0,0,0,0,0,0,3.6135,3.6141,3.6415,3.6417,3.6418,3.6529,3.6531,3.6532,3.6459,3.6454,3.645,3.6446,3.6566,3.6573,3.6581,0,0,0,0,0,0,0,0,0,0,0,0,0,3.6254,3.6143,3.6415,3.6395,3.6394,3.6529,3.6531,3.6533,3.6459,3.6454,3.6449,3.6444,3.6563,3.6572,3.6582,3.6744,0,0,3.6611,3.6615,0,0,0,0,0,0,0,0,3.6247,3.6264,3.6396,3.6396,3.6396,3.6474,3.6476,3.6604,3.6461,3.6435,3.6448,3.6442,3.6541,3.6552,3.6585,3.675,3.6755,3.6612,3.6618,3.6622,3.6625,0,0,0,0,0,0,0,3.6239,3.6259,3.6461,3.6398,3.6398,3.638,3.6391,3.65,3.6516,3.6437,3.6431,3.6446,3.654,3.6576,3.6587,3.6757,3.6612,3.662,3.6626,3.663,3.7058,3.7063,0,0,0,0,0,0,3.6232,3.6253,3.6457,3.6464,3.6307,3.639,3.6402,3.6454,3.6514,3.6518,3.645,3.6442,3.6562,3.6576,3.6591,3.6783,3.6622,3.6631,3.6636,3.7053,3.7059,3.7065,0,0,0,0,0,0,3.6227,3.6251,3.6452,3.6357,3.6381,3.64,3.6459,3.6459,3.6495,3.6524,3.6527,3.6484,3.6558,3.6578,3.6706,3.6786,3.6635,3.6644,3.7046,3.7055,3.7062,3.717,0,0,0,0,0,0,3.6219,3.625,3.6312,3.6359,3.6387,3.6565,3.6464,3.6465,3.6511,3.6502,3.6556,3.6561,3.6556,3.6692,3.6715,3.6797,3.6651,3.7039,3.705,3.706,3.716,3.7181,3.72,0,0,0,0,0,3.6209,3.6339,3.6315,3.634,3.6464,3.657,3.6586,3.6577,3.6518,3.658,3.6599,3.6559,3.6774,3.6706,3.6732,3.6817,3.7034,3.7047,3.7059,3.7151,3.7177,3.7199,0,0,0,0,0,0,3.6302,3.6345,3.6319,3.6467,3.6515,3.6557,3.6636,3.6606,3.6672,3.6661,3.6647,3.666,3.6794,3.6819,3.6742,3.6976,3.6895,3.6913,3.6955,3.6981,3.7001,3.6992,3.6659,0,0,0,0,0,3.6339,3.6421,3.6454,3.6582,3.6607,3.6617,3.6663,3.6652,3.6702,3.6722,3.675,3.6801,3.6879,3.6931,3.7006,3.7163,3.7173,3.7234,3.7254,3.7271,3.7287,3.737,3.7397,3.7107,3.7107,3.7107,0,0,3.6418,3.6451,3.6504,3.6601,3.6637,3.6722,3.6635,3.673,3.6793,3.6737,3.6859,3.6881,3.6937,3.7079,3.7144,3.7104,3.7369,3.7287,3.73,3.7307,3.7386,3.7413,3.7437,3.7116,3.7114,3.7113,0,0,3.6604,3.6638,3.6747,3.6785,3.6839,3.6845,3.6871,3.6918,3.693,3.7052,3.7011,3.7086,3.7222,3.7263,3.7301,3.7501,3.7466,3.7525,3.7631,3.7712,3.7735,3.7755,3.7825,3.785,3.7541,3.7542,3.7542,0,3.6696,3.6822,3.6808,3.6904,3.6948,3.6899,3.7009,3.7047,3.7124,3.7155,3.7109,3.7277,3.7311,3.7462,3.751,3.7543,3.7572,3.7519,3.7732,3.7752,3.7771,3.7838,3.7864,3.7548,3.7547,3.7547,3.7546,0,3.693,3.7018,3.71,3.7173,3.7226,3.7329,3.7331,3.7386,3.7369,3.738,3.7504,3.7543,3.7623,3.7658,3.7644,3.7807,3.778,3.7734,3.7651,3.7806,3.7868,3.7893,3.7558,3.7555,3.7553,3.7552,0,0,3.718,3.7242,3.7272,3.7304,3.736,3.7428,3.7528,3.7605,3.7652,3.7707,3.779,3.7905,3.7862,3.7906,3.7895,3.7967,3.812,3.7911,3.7912,3.7948,3.83,3.8334,3.8364,3.8098,3.8102,3.8106,3.8295,0,3.7368,3.7542,3.7532,3.7695,3.7776,3.773,3.7817,3.7861,3.7873,3.7943,3.7957,3.8038,3.7975,3.8001,3.807,3.8087,3.8191,3.8073,3.8175,3.8179,3.8162,3.8397,3.8434,3.861,3.832,3.8324,3.8327,0,3.7612,3.7673,3.7844,3.7885,3.7919,3.7998,3.8066,3.8134,3.8182,3.8186,3.8233,3.8211,3.8312,3.8227,3.8366,3.8286,3.8327,3.8342,3.8348,3.8357,3.8262,3.8411,3.8666,3.8692,3.8365,3.8362,3.8359,0,3.7775,3.79,3.8018,3.8046,3.8099,3.8154,3.8179,3.8222,3.8268,3.8328,3.8358,3.843,3.8469,3.8525,3.8522,3.8461,3.8663,3.8578,3.8668,3.8669,3.8713,3.871,3.8977,3.8741,3.8741,3.874,3.8739,0,3.7987,3.8093,3.8091,3.8164,3.8281,3.8268,3.8384,3.8403,3.8441,3.8516,3.8482,3.8553,3.8545,3.8617,3.8616,3.873,3.8749,3.8754,3.8752,3.8757,3.8756,3.8783,3.8771,3.8747,3.8745,3.8744,3.8743,0,3.8189,3.8192,3.8317,3.8355,3.8367,3.8452,3.8485,3.8553,3.8561,3.8657,3.8679,3.8692,3.8775,3.8777,3.8873,3.8872,3.9011,3.8996,3.8994,3.8991,3.9081,3.9072,3.9374,3.9413,3.9152,3.9154,3.9157,0,3.8324,3.8404,3.845,3.8497,3.8524,3.8601,3.8647,3.8637,3.8687,3.8746,3.8808,3.8887,3.8949,3.9083,3.9102,3.9174,3.916,3.9261,3.9171,3.9172,3.916,3.9155,3.9163,3.9279,3.9282,3.9284,3.9286,0,3.8562,3.8559,3.8626,3.8694,3.8749,3.8803,3.8852,3.8893,3.8888,3.8945,3.9028,3.9077,3.9173,3.9251,3.9321,3.9346,3.9316,3.9314,3.9338,3.9344,3.9339,3.9341,3.9041,3.9307,3.9305,3.9304,3.9302,3.9302,3.8734,3.8802,3.8844,3.892,3.8956,3.9002,3.9067,3.9083,3.9151,3.9228,3.9217,3.931,3.9354,3.9444,3.9476,3.9548,3.9513,3.9549,3.9558,3.9567,3.9576,3.9328,3.9561,3.956,3.9559,3.9559,3.9558,0,3.8969,3.8993,3.9063,3.9132,3.9191,3.9155,3.9207,3.9259,3.9341,3.9384,3.9445,3.954,3.9616,3.9639,3.9712,3.9765,3.9753,3.9785,3.9781,3.9787,3.9603,3.9574,3.9793,3.9793,3.9793,3.9793,3.9793,3.9793,3.9099,3.9212,3.9213,3.9343,3.9367,3.9456,3.9488,3.953,3.9565,3.9671,3.9733,3.9747,3.9783,3.9858,3.9925,3.993,3.9958,3.9996,3.9995,3.9823,3.98,3.9777,3.975,4.0002,4.0003,4.0172,4.0174,4.0175]},{"header":{"parameterUnit":"m.s-1","parameterCategory":1,"la1":30.2991,"la2":30.254,"lo1":-89.0895,"lo2":-89.0444,"dy":0.0017,"dx":0.0017,"nx":28,"ny":28,"refTime":"2024-06-25T21:00:00:Z","depth":0,"parameterNumber":3,"parameterNumberName":"V-component_of_WINDS"},"data":[0,0,0,0,0,0,0,0,0,0,0,0,0,0,0,0,0,0,0,0,0,0,0,0,0,0,0,0,0,0,0,0,0,0,0,0,0,0,0,0,0,0,0,0,0,0,0,0,0,0,0,0,0,0,0,0,0,0,1.3117,1.3117,0,1.3141,1.3141,1.3141,1.311,1.3109,1.3108,1.3107,1.3131,1.3133,1.3134,0,0,0,0,0,0,0,0,0,0,0,0,0,1.3042,1.3044,1.3117,1.3117,1.3117,1.3141,1.3141,1.3141,1.311,1.3109,1.3107,1.3106,1.313,1.3132,1.3135,0,0,0,0,0,0,0,0,0,0,0,0,0,1.3071,1.3044,1.3117,1.3104,1.3104,1.3141,1.3141,1.3141,1.311,1.3109,1.3107,1.3105,1.313,1.3132,1.3135,1.3185,0,0,1.3143,1.3144,0,0,0,0,0,0,0,0,1.307,1.3074,1.3106,1.3105,1.3104,1.3121,1.3124,1.3156,1.3111,1.3108,1.3107,1.3105,1.3129,1.3131,1.314,1.3186,1.3187,1.3143,1.3144,1.3146,1.3146,0,0,0,0,0,0,0,1.3068,1.3073,1.3126,1.3106,1.3106,1.3097,1.31,1.313,1.3128,1.3108,1.3106,1.3109,1.3128,1.3137,1.314,1.3187,1.3143,1.3145,1.3147,1.3148,1.3274,1.3276,0,0,0,0,0,0,1.3067,1.3071,1.3125,1.3127,1.3083,1.31,1.3103,1.3117,1.3127,1.3127,1.3111,1.3108,1.3134,1.3137,1.3141,1.3199,1.3145,1.3148,1.3149,1.3273,1.3275,1.3277,0,0,0,0,0,0,1.3066,1.3072,1.3124,1.3099,1.3105,1.3103,1.312,1.3119,1.3128,1.3129,1.3129,1.312,1.3133,1.3137,1.3174,1.32,1.3149,1.3151,1.327,1.3273,1.3276,1.3317,0,0,0,0,0,0,1.3064,1.3072,1.3091,1.3099,1.3106,1.3158,1.3121,1.312,1.3132,1.3129,1.3138,1.3138,1.3132,1.317,1.3176,1.3202,1.3153,1.3268,1.3272,1.3275,1.3314,1.3321,1.3328,0,0,0,0,0,1.3061,1.3102,1.3093,1.3099,1.313,1.3159,1.3163,1.3155,1.3134,1.3154,1.3154,1.3138,1.3196,1.3174,1.3181,1.3208,1.3266,1.3271,1.3275,1.331,1.332,1.3327,0,0,0,0,0,0,1.3098,1.3103,1.3092,1.3137,1.3148,1.3154,1.3178,1.3165,1.3182,1.3177,1.3166,1.3169,1.3208,1.3211,1.3187,1.3256,1.3228,1.3233,1.3253,1.3261,1.3268,1.3267,1.3156,0,0,0,0,0,1.3111,1.3134,1.3138,1.3177,1.3183,1.3179,1.3192,1.3184,1.3195,1.3199,1.3203,1.3213,1.3234,1.3248,1.3267,1.3314,1.3315,1.3336,1.3342,1.3348,1.3353,1.3378,1.3387,1.329,1.329,1.329,0,0,1.3139,1.3145,1.316,1.3184,1.3192,1.3216,1.3184,1.321,1.3228,1.3203,1.3238,1.3241,1.3252,1.3294,1.3312,1.3298,1.338,1.3353,1.3358,1.336,1.3383,1.3392,1.34,1.3293,1.3293,1.3292,0,0,1.3202,1.3209,1.3242,1.325,1.3261,1.3258,1.3266,1.3274,1.3275,1.3309,1.3291,1.3311,1.3347,1.3356,1.3365,1.3429,1.3414,1.3435,1.3472,1.3496,1.3503,1.351,1.3533,1.3541,1.344,1.3441,1.3441,0,1.3235,1.3271,1.326,1.3288,1.3299,1.3278,1.3311,1.3319,1.3336,1.3344,1.3327,1.3371,1.3377,1.342,1.3436,1.3444,1.3452,1.3435,1.3503,1.351,1.3516,1.3537,1.3546,1.3443,1.3443,1.3442,1.3442,0,1.331,1.3335,1.336,1.3377,1.3391,1.3421,1.3415,1.343,1.3421,1.342,1.3455,1.3461,1.3481,1.349,1.3482,1.3532,1.3523,1.3505,1.3476,1.3528,1.3548,1.3556,1.3447,1.3446,1.3445,1.3444,0,0,1.3398,1.3408,1.3418,1.3424,1.3435,1.3454,1.3483,1.3501,1.3514,1.3526,1.355,1.358,1.3563,1.3574,1.3566,1.3587,1.3637,1.3566,1.3566,1.3579,1.3692,1.3705,1.3715,1.3627,1.3628,1.3629,1.3691,0,1.3461,1.3511,1.3502,1.3551,1.3573,1.3552,1.3577,1.3586,1.3586,1.3604,1.3603,1.3624,1.3601,1.3607,1.3627,1.3627,1.3659,1.3622,1.3648,1.3649,1.3647,1.3725,1.374,1.3797,1.3698,1.37,1.3701,0,1.3541,1.3556,1.3607,1.3613,1.3622,1.3644,1.366,1.3678,1.3688,1.3685,1.3696,1.3684,1.3712,1.3683,1.3721,1.3696,1.3706,1.3707,1.3709,1.3711,1.3679,1.373,1.3815,1.3824,1.3713,1.3712,1.3711,0,1.3599,1.3632,1.3666,1.3673,1.3681,1.3697,1.3701,1.3709,1.372,1.3734,1.3741,1.3758,1.3768,1.3781,1.3773,1.3752,1.3813,1.3782,1.3811,1.3812,1.3825,1.3825,1.3914,1.3832,1.3832,1.3831,1.3831,0,1.3671,1.3703,1.3693,1.3714,1.3749,1.3738,1.3772,1.3774,1.378,1.3801,1.3784,1.3804,1.3792,1.3811,1.3805,1.3837,1.3842,1.3841,1.3839,1.3842,1.3843,1.3849,1.3845,1.3834,1.3833,1.3833,1.3832,0,1.3742,1.3737,1.3773,1.3777,1.3779,1.3804,1.3808,1.3827,1.3825,1.3851,1.3856,1.3853,1.3874,1.3867,1.389,1.3886,1.3927,1.392,1.3924,1.3922,1.3951,1.3949,1.4048,1.406,1.397,1.3971,1.3972,0,1.3788,1.3812,1.3818,1.3831,1.3836,1.3857,1.3868,1.3858,1.387,1.3882,1.39,1.3919,1.3934,1.3969,1.3968,1.3985,1.3978,1.4011,1.398,1.3983,1.3978,1.3977,1.3979,1.4018,1.4019,1.402,1.402,0,1.387,1.3866,1.3883,1.3899,1.3914,1.3926,1.3937,1.3948,1.3938,1.3953,1.3974,1.3986,1.4008,1.4028,1.4043,1.4046,1.4032,1.403,1.4038,1.4042,1.4043,1.4043,1.3941,1.4028,1.4027,1.4027,1.4026,1.4026,1.393,1.395,1.3957,1.3977,1.3984,1.3994,1.4012,1.4012,1.4029,1.4047,1.4039,1.4064,1.4071,1.409,1.4095,1.4113,1.4101,1.4112,1.4114,1.4117,1.4121,1.404,1.4116,1.4116,1.4116,1.4116,1.4115,0,1.401,1.4014,1.4032,1.4047,1.4063,1.4047,1.4058,1.4071,1.4093,1.4101,1.4116,1.414,1.4158,1.4158,1.4175,1.419,1.4183,1.4194,1.4193,1.4194,1.4132,1.4123,1.4199,1.4199,1.4199,1.4199,1.4199,1.4199,1.4054,1.4087,1.4084,1.4119,1.4122,1.4146,1.4153,1.4162,1.4169,1.4196,1.4211,1.4211,1.4215,1.4232,1.4248,1.4248,1.4255,1.4268,1.4265,1.4207,1.4199,1.4191,1.4183,1.427,1.427,1.4326,1.4327,1.4327]}]]